TimeEDT,TemperatureF,Dew PointF,Humidity,Sea Level PressureIn,VisibilityMPH,Wind Direction,Wind SpeedMPH,Gust SpeedMPH,PrecipitationIn,Events,Conditions,WindDirDegrees,DateUTC
12:15 AM,-9999,-9999,N/A,29.91,7.0,Calm,Calm,-,N/A,,Mostly Cloudy,0,2013-05-07 04:15:00
12:35 AM,-9999,-9999,N/A,29.91,7.0,Calm,Calm,-,N/A,,Overcast,0,2013-05-07 04:35:00
12:55 AM,-9999,-9999,N/A,29.91,7.0,Calm,Calm,-,N/A,,Overcast,0,2013-05-07 04:55:00
1:15 AM,-9999,-9999,N/A,29.91,7.0,Calm,Calm,-,N/A,,Overcast,0,2013-05-07 05:15:00
1:35 AM,-9999,-9999,N/A,29.91,7.0,Calm,Calm,-,N/A,,Overcast,0,2013-05-07 05:35:00
1:55 AM,-9999,-9999,N/A,29.90,7.0,Calm,Calm,-,0.01,,Overcast,0,2013-05-07 05:55:00
2:15 AM,-9999,-9999,N/A,29.89,7.0,Calm,Calm,-,N/A,,Overcast,0,2013-05-07 06:15:00
2:35 AM,-9999,-9999,N/A,29.89,7.0,Calm,Calm,-,N/A,,Overcast,0,2013-05-07 06:35:00
2:55 AM,-9999,-9999,N/A,29.88,10.0,Calm,Calm,-,N/A,,Overcast,0,2013-05-07 06:55:00
3:15 AM,-9999,-9999,N/A,29.87,10.0,Calm,Calm,-,N/A,,Mostly Cloudy,0,2013-05-07 07:15:00
3:35 AM,-9999,-9999,N/A,29.87,3.0,Calm,Calm,-,N/A,,Mostly Cloudy,0,2013-05-07 07:35:00
3:55 AM,-9999,-9999,N/A,29.88,5.0,Calm,Calm,-,N/A,,Haze,0,2013-05-07 07:55:00
4:15 AM,-9999,-9999,N/A,29.87,7.0,Calm,Calm,-,N/A,,Overcast,0,2013-05-07 08:15:00
4:35 AM,-9999,-9999,N/A,29.87,4.0,Calm,Calm,-,N/A,,Haze,0,2013-05-07 08:35:00
4:55 AM,-9999,-9999,N/A,29.87,7.0,Calm,Calm,-,N/A,,Overcast,0,2013-05-07 08:55:00
5:15 AM,-9999,-9999,N/A,29.87,5.0,Calm,Calm,-,N/A,,Haze,0,2013-05-07 09:15:00
5:35 AM,-9999,-9999,N/A,29.88,5.0,Calm,Calm,-,N/A,,Haze,0,2013-05-07 09:35:00
5:55 AM,-9999,-9999,N/A,29.88,10.0,Calm,Calm,-,N/A,,Overcast,0,2013-05-07 09:55:00
6:15 AM,-9999,-9999,N/A,29.89,5.0,Calm,Calm,-,N/A,,Haze,0,2013-05-07 10:15:00
6:35 AM,-9999,-9999,N/A,29.89,5.0,Calm,Calm,-,N/A,,Haze,0,2013-05-07 10:35:00
6:55 AM,-9999,-9999,N/A,29.88,7.0,Calm,Calm,-,N/A,,Scattered Clouds,0,2013-05-07 10:55:00
7:15 AM,-9999,-9999,N/A,29.89,7.0,Calm,Calm,-,N/A,,Clear,0,2013-05-07 11:15:00
7:35 AM,-9999,-9999,N/A,29.89,7.0,Calm,Calm,-,N/A,,Clear,0,2013-05-07 11:35:00
7:55 AM,-9999,-9999,N/A,29.89,10.0,South,4.6,-,N/A,,Clear,170,2013-05-07 11:55:00
8:15 AM,-9999,-9999,N/A,29.89,10.0,South,5.8,-,N/A,,Clear,170,2013-05-07 12:15:00
8:35 AM,-9999,-9999,N/A,29.90,10.0,SSE,6.9,-,N/A,,Clear,160,2013-05-07 12:35:00
8:55 AM,-9999,-9999,N/A,29.91,10.0,South,6.9,-,N/A,,Clear,180,2013-05-07 12:55:00
9:15 AM,-9999,-9999,N/A,29.91,10.0,South,5.8,-,N/A,,Scattered Clouds,170,2013-05-07 13:15:00
9:35 AM,62.6,62.6,100,29.92,10.0,SSE,6.9,-,N/A,,Scattered Clouds,150,2013-05-07 13:35:00
9:55 AM,62.6,62.6,100,29.92,10.0,SSE,4.6,-,N/A,,Scattered Clouds,160,2013-05-07 13:55:00
10:15 AM,62.6,62.6,100,29.92,10.0,SSE,5.8,-,N/A,,Scattered Clouds,160,2013-05-07 14:15:00
10:35 AM,62.6,62.6,100,29.93,10.0,South,5.8,-,N/A,,Scattered Clouds,190,2013-05-07 14:35:00
10:55 AM,62.6,60.8,94,29.93,10.0,South,3.5,-,N/A,,Scattered Clouds,190,2013-05-07 14:55:00
11:15 AM,64.4,59.0,83,29.93,10.0,South,4.6,-,N/A,,Scattered Clouds,190,2013-05-07 15:15:00
11:35 AM,66.2,59.0,78,29.93,10.0,SSW,3.5,-,N/A,,Scattered Clouds,200,2013-05-07 15:35:00
11:55 AM,68.0,55.4,64,29.93,10.0,South,5.8,-,N/A,,Scattered Clouds,190,2013-05-07 15:55:00
12:15 PM,64.4,55.4,73,29.93,10.0,South,5.8,-,N/A,,Scattered Clouds,180,2013-05-07 16:15:00
12:35 PM,68.0,55.4,64,29.93,10.0,SSW,4.6,-,N/A,,Clear,200,2013-05-07 16:35:00
12:55 PM,68.0,53.6,60,29.92,10.0,South,5.8,-,N/A,,Scattered Clouds,190,2013-05-07 16:55:00
1:15 PM,68.0,53.6,60,29.92,10.0,South,5.8,-,N/A,,Scattered Clouds,180,2013-05-07 17:15:00
1:35 PM,68.0,51.8,56,29.91,10.0,SSE,11.5,-,N/A,,Mostly Cloudy,160,2013-05-07 17:35:00
1:55 PM,68.0,51.8,56,29.91,10.0,SSW,6.9,-,N/A,,Mostly Cloudy,210,2013-05-07 17:55:00
2:15 PM,68.0,50.0,52,29.91,10.0,South,6.9,-,N/A,,Scattered Clouds,190,2013-05-07 18:15:00
2:35 PM,69.8,46.4,43,29.90,10.0,SSW,6.9,-,N/A,,Mostly Cloudy,200,2013-05-07 18:35:00
2:55 PM,68.0,44.6,43,29.90,10.0,South,9.2,-,N/A,,Mostly Cloudy,190,2013-05-07 18:55:00
3:15 PM,69.8,46.4,43,29.89,10.0,South,6.9,-,N/A,,Mostly Cloudy,180,2013-05-07 19:15:00
3:35 PM,69.8,48.2,46,29.89,10.0,SSW,4.6,-,N/A,,Mostly Cloudy,200,2013-05-07 19:35:00
3:55 PM,69.8,50.0,49,29.89,10.0,SSW,5.8,-,N/A,,Scattered Clouds,200,2013-05-07 19:55:00
4:15 PM,69.8,48.2,46,29.88,10.0,South,5.8,-,N/A,,Scattered Clouds,190,2013-05-07 20:15:00
4:35 PM,69.8,44.6,40,29.88,10.0,SSE,6.9,-,N/A,,Scattered Clouds,160,2013-05-07 20:35:00
4:55 PM,69.8,44.6,40,29.88,10.0,SSW,4.6,-,N/A,,Scattered Clouds,210,2013-05-07 20:55:00
5:15 PM,66.2,46.4,49,29.88,10.0,Calm,Calm,-,N/A,,Scattered Clouds,0,2013-05-07 21:15:00
5:35 PM,68.0,46.4,46,29.89,10.0,South,3.5,-,N/A,,Clear,180,2013-05-07 21:35:00
5:55 PM,69.8,46.4,43,29.89,10.0,SSW,3.5,-,N/A,,Clear,200,2013-05-07 21:55:00
6:15 PM,68.0,46.4,46,29.89,10.0,South,5.8,-,N/A,,Clear,180,2013-05-07 22:15:00
6:35 PM,66.2,48.2,52,29.89,10.0,South,4.6,-,N/A,,Clear,180,2013-05-07 22:35:00
6:55 PM,64.4,50.0,59,29.89,10.0,South,5.8,-,N/A,,Scattered Clouds,190,2013-05-07 22:55:00
7:15 PM,62.6,48.2,59,29.90,10.0,South,4.6,-,N/A,,Mostly Cloudy,180,2013-05-07 23:15:00
7:35 PM,60.8,50.0,68,29.91,10.0,SSW,3.5,-,N/A,,Scattered Clouds,200,2013-05-07 23:35:00
7:55 PM,60.8,50.0,68,29.91,10.0,Calm,Calm,-,N/A,,Clear,0,2013-05-07 23:55:00
8:15 PM,55.4,51.8,88,29.92,10.0,Calm,Calm,-,N/A,,Clear,0,2013-05-08 00:15:00
8:35 PM,53.6,53.6,100,29.92,10.0,Calm,Calm,-,N/A,,Clear,0,2013-05-08 00:35:00
8:55 PM,-9999,-9999,N/A,29.93,10.0,Calm,Calm,-,N/A,,Clear,0,2013-05-08 00:55:00
9:15 PM,-9999,-9999,N/A,29.93,10.0,Calm,Calm,-,N/A,,Clear,0,2013-05-08 01:15:00
9:35 PM,-9999,-9999,N/A,29.95,10.0,Calm,Calm,-,N/A,,Clear,0,2013-05-08 01:35:00
9:55 PM,-9999,-9999,N/A,29.95,10.0,Calm,Calm,-,N/A,,Clear,0,2013-05-08 01:55:00
10:15 PM,-9999,-9999,N/A,29.95,10.0,Calm,Calm,-,N/A,,Clear,0,2013-05-08 02:15:00
10:35 PM,-9999,-9999,N/A,29.95,10.0,Calm,Calm,-,N/A,,Clear,0,2013-05-08 02:35:00
10:55 PM,-9999,-9999,N/A,29.96,10.0,Calm,Calm,-,N/A,,Clear,0,2013-05-08 02:55:00
11:15 PM,-9999,-9999,N/A,29.96,7.0,Calm,Calm,-,N/A,,Clear,0,2013-05-08 03:15:00
11:35 PM,-9999,-9999,N/A,29.96,10.0,Calm,Calm,-,N/A,,Clear,0,2013-05-08 03:35:00
11:55 PM,-9999,-9999,N/A,29.96,10.0,Calm,Calm,-,N/A,,Clear,0,2013-05-08 03:55:00